QPF
0.00 0.00 0.00 0.00 0.00 0.00 0.00 0.00 0.00 0.00 0.00 0.00 0.00 0.00 0.00 0.00 0.00 0.00 0.00 0.00 0.00 0.00 0.00 0.00 0.00 0.00 0.00 0.00 0.00 0.00 0.00 0.00 0.00 0.00 0.00 0.00 0.00 0.00 0.00 0.00 0.00 0.00 0.00 0.00 0.00
0.00 0.00 0.00 0.00 0.00 0.00 0.00 0.00 0.00 0.00 0.00 0.00 0.00 0.00 0.00 0.00 0.00 0.00 0.00 0.00 0.00 0.00 0.00 0.00 0.00 0.00 0.00 0.00 0.00 0.00 0.00 0.00 0.00 0.00 0.00 0.00 0.00 0.00 0.00 0.00 0.00 0.00 0.00 0.00 0.00
0.00 0.00 0.00 0.00 0.00 0.00 0.00 0.00 0.00 0.00 0.00 0.00 0.00 0.00 0.00 0.00 0.00 0.00 0.00 0.00 0.00 0.00 0.00 0.00 0.00 0.00 0.00 0.00 0.00 0.00 0.00 0.00 0.00 0.00 0.00 0.00 0.00 0.00 0.00 0.00 0.00 0.00 0.00 0.00 0.00
0.00 0.00 0.00 0.00 0.00 0.00 0.00 0.00 0.00 0.00 0.00 0.00 0.00 0.00 0.00 0.00 0.00 0.00 0.00 0.00 0.00 0.00 0.00 0.00 0.00 0.00 0.00 0.00 0.00 0.00 0.00 0.00 0.00 0.00 0.00 0.00 0.00 0.00 0.00 0.00 0.00 0.00 0.00 0.00 0.00
0.00 0.00 0.00 0.00 0.00 0.00 0.00 0.00 0.00 0.00 0.00 0.00 0.00 0.00 0.00 0.00 0.00 0.00 0.00 0.00 0.00 0.00 0.00 0.00 0.00 0.00 0.00 0.00 0.00 0.00 0.00 0.00 0.00 0.00 0.00 0.00 0.00 0.00 0.00 0.00 0.00 0.00 0.00 0.00 0.00
0.00 0.00 0.00 0.00 0.00 0.00 0.00 0.00 0.00 0.00 0.00 0.00 0.00 0.00 0.00 0.00 0.00 0.00 0.00 0.00 0.00 0.00 0.00 0.00 0.00 0.00 0.00 0.00 0.00 0.00 0.00 0.00 0.00 0.00 0.00 0.00 0.00 0.00 0.00 0.00 0.00 0.00 0.00 0.00 0.00
0.00 0.00 0.00 0.00 0.00 0.00 0.00 0.00 0.00 0.00 0.00 0.00 0.00 0.00 0.00 0.00 0.00 0.00 0.00 0.00 0.00 0.00 0.00 0.00 0.00 0.00 0.00 0.00 0.00 0.00 0.00 0.00 0.00 0.00 0.00 0.00 0.00 0.00 0.00 0.00 0.00 0.00 0.00 0.00 0.00
0.00 0.00 0.00 0.00 0.00 0.00 0.00 0.00 0.00 0.00 0.00 0.00 0.00 0.00 0.00 0.00 0.00 0.00 0.00 0.00 0.00 0.00 0.00 0.00 0.00 0.00 0.00 0.00 0.00 0.00 0.00 0.00 0.00 0.00 0.00 0.00 0.00 0.00 0.00 0.00 0.00 0.00 0.00 0.00 0.00
0.00 0.00 0.00 0.00 0.00 0.00 0.00 0.00 0.00 0.00 0.00 0.00 0.00 0.00 0.00 0.00 0.00 0.00 0.00 0.00 0.00 0.00 0.00 0.00 0.00 0.00 0.00 0.00 0.00 0.00 0.00 0.00 0.00 0.00 0.00 0.00 0.00 0.00 0.00 0.00 0.00 0.00 0.00 0.00 0.00
0.00 0.00 0.00 0.00 0.00 0.00 0.00 0.00 0.00 0.00 0.00 0.00 0.00 0.00 0.00 0.00 0.00 0.00 0.00 0.00 0.00 0.00 0.00 0.00 0.00 0.00 0.00 0.00 0.00 0.00 0.00 0.00 0.00 0.00 0.00 0.00 0.00 0.00 0.00 0.00 0.00 0.00 0.00 0.00 0.00
0.00 0.00 0.00 0.00 0.00 0.00 0.00 0.00 0.00 0.00 0.00 0.00 0.00 0.00 0.00 0.00 0.00 0.00 0.00 0.00 0.00 0.00 0.00 0.00 0.00 0.00 0.00 0.00 0.00 0.00 0.00 0.00 0.00 0.00 0.00 0.00 0.00 0.00 0.00 0.00 0.00 0.00 0.00 0.00 0.00
0.00 0.00 0.00 0.00 0.00 0.00 0.00 0.00 0.00 0.00 0.00 0.00 0.00 0.00 0.00 0.00 0.00 0.00 0.00 0.00 0.00 0.00 0.00 0.00 0.00 0.00 0.00 0.00 0.00 0.00 0.00 0.00 0.00 0.00 0.00 0.00 0.00 0.00 0.00 0.00 0.00 0.00 0.00 0.00 0.00
0.00 0.00 0.00 0.00 0.00 0.00 0.00 0.00 0.00 0.00 0.00 0.00 0.00 0.00 0.00 0.00 0.00 0.00 0.00 0.00 0.00 0.00 0.00 0.00 0.00 0.00 0.00 0.00 0.00 0.00 0.00 0.00 0.00 0.00 0.00 0.00 0.00 0.00 0.00 0.00 0.00 0.00 0.00 0.00 0.00
0.00 0.00 0.00 0.00 0.00 0.00 0.00 0.00 0.00 0.00 0.00 0.00 0.00 0.00 0.00 0.00 0.00 0.00 0.00 0.00 0.00 0.00 0.00 0.00 0.00 0.00 0.00 0.00 0.00 0.00 0.00 0.00 0.00 0.00 0.00 0.00 0.00 0.00 0.00 0.00 0.00 0.00 0.00 0.00 0.00
0.00 0.00 0.00 0.01 0.00 0.00 0.00 0.00 0.00 0.00 0.00 0.00 0.00 0.00 0.00 0.00 0.00 0.00 0.00 0.00 0.00 0.00 0.00 0.00 0.00 0.00 0.00 0.00 0.00 0.00 0.00 0.00 0.00 0.00 0.00 0.00 0.00 0.00 0.00 0.00 0.00 0.00 0.00 0.00 0.00
0.00 0.00 0.01 0.00 0.00 0.00 0.00 0.00 0.00 0.00 0.00 0.00 0.00 0.00 0.00 0.00 0.00 0.00 0.00 0.00 0.00 0.00 0.00 0.00 0.00 0.00 0.00 0.00 0.00 0.00 0.00 0.00 0.00 0.00 0.00 0.00 0.00 0.00 0.00 0.00 0.00 0.00 0.00 0.00 0.00
0.00 0.00 0.00 0.00 0.00 0.00 0.00 0.00 0.02 0.00 0.00 0.00 0.00 0.00 0.00 0.00 0.00 0.00 0.00 0.00 0.00 0.00 0.00 0.00 0.00 0.00 0.00 0.00 0.00 0.00 0.00 0.00 0.00 0.00 0.00 0.00 0.00 0.00 0.00 0.00 0.00 0.00 0.00 0.00 0.00
0.00 0.00 0.00 0.00 0.00 0.00 0.00 0.01 0.02 0.00 0.00 0.00 0.00 0.00 0.00 0.00 0.00 0.00 0.00 0.00 0.00 0.00 0.00 0.00 0.00 0.00 0.00 0.00 0.00 0.00 0.00 0.00 0.00 0.00 0.00 0.00 0.00 0.00 0.00 0.00 0.00 0.00 0.00 0.00 0.00
0.00 0.00 0.00 0.00 0.00 0.00 0.00 0.01 0.00 0.00 0.00 0.00 0.00 0.00 0.00 0.00 0.00 0.00 0.00 0.00 0.00 0.00 0.00 0.00 0.00 0.00 0.00 0.00 0.00 0.00 0.00 0.00 0.00 0.00 0.00 0.00 0.00 0.00 0.00 0.00 0.00 0.00 0.00 0.00 0.00
0.00 0.00 0.00 0.00 0.00 0.04 0.02 0.02 0.00 0.00 0.00 0.00 0.00 0.00 0.00 0.00 0.00 0.00 0.00 0.00 0.00 0.00 0.00 0.00 0.00 0.00 0.00 0.00 0.00 0.00 0.00 0.00 0.00 0.00 0.00 0.00 0.00 0.00 0.00 0.00 0.00 0.00 0.00 0.00 0.00
0.00 0.00 0.00 0.00 0.02 0.06 0.05 0.01 0.00 0.00 0.01 0.00 0.00 0.00 0.00 0.00 0.00 0.00 0.00 0.00 0.00 0.00 0.00 0.00 0.00 0.00 0.00 0.00 0.00 0.00 0.00 0.00 0.00 0.00 0.00 0.00 0.00 0.00 0.00 0.00 0.00 0.00 0.00 0.00 0.00
0.00 0.00 0.02 0.02 0.02 0.01 0.01 0.00 0.00 0.00 0.00 0.00 0.00 0.00 0.00 0.00 0.00 0.00 0.00 0.00 0.00 0.00 0.00 0.00 0.00 0.00 0.00 0.00 0.00 0.00 0.00 0.00 0.00 0.00 0.00 0.00 0.00 0.00 0.00 0.00 0.00 0.00 0.00 0.00 0.00
0.00 0.00 0.03 0.07 0.04 0.12 0.07 0.01 0.01 0.00 0.00 0.00 0.00 0.00 0.00 0.00 0.00 0.00 0.00 0.00 0.00 0.00 0.00 0.00 0.00 0.00 0.00 0.00 0.00 0.00 0.00 0.00 0.00 0.00 0.00 0.00 0.00 0.00 0.00 0.00 0.00 0.00 0.00 0.00 0.00
0.00 0.00 0.03 0.16 0.17 0.23 0.03 0.00 0.00 0.00 0.00 0.00 0.00 0.00 0.00 0.00 0.00 0.00 0.00 0.00 0.00 0.00 0.00 0.00 0.00 0.00 0.00 0.00 0.00 0.00 0.00 0.00 0.00 0.00 0.00 0.00 0.00 0.00 0.00 0.00 0.00 0.00 0.00 0.00 0.00
0.00 0.00 0.04 0.02 0.00 0.00 0.00 0.00 0.00 0.00 0.00 0.00 0.00 0.00 0.00 0.00 0.00 0.00 0.00 0.00 0.00 0.00 0.00 0.00 0.00 0.00 0.00 0.00 0.00 0.00 0.00 0.00 0.00 0.00 0.00 0.00 0.00 0.00 0.00 0.00 0.00 0.00 0.00 0.00 0.00
0.00 0.02 0.01 0.00 0.00 0.00 0.00 0.00 0.02 0.02 0.02 0.00 0.01 0.00 0.00 0.01 0.00 0.00 0.00 0.00 0.00 0.00 0.00 0.00 0.00 0.00 0.00 0.00 0.00 0.00 0.00 0.00 0.00 0.00 0.00 0.00 0.00 0.00 0.00 0.00 0.00 0.00 0.00 0.00 0.00
0.01 0.02 0.02 0.01 0.00 0.00 0.00 0.09 0.20 0.07 0.06 0.05 0.04 0.06 0.00 0.00 0.00 0.00 0.00 0.00 0.00 0.00 0.00 0.00 0.00 0.00 0.00 0.00 0.00 0.00 0.00 0.00 0.00 0.00 0.00 0.00 0.00 0.00 0.00 0.00 0.00 0.00 0.00 0.00 0.00
MSLP
1020.06 1019.69 1019.25 1018.92 1018.73 1018.59 1018.30 1017.97 1017.58 1017.31 1016.98 1016.44 1016.41 1015.77 1015.47 1015.11 1014.18 1013.61 1012.34 1009.80 1009.74 1009.31 1009.88 1010.08 1010.62 1010.42 1010.94 1011.00 1011.01 1011.26 1012.12 1011.82 1010.72 1009.51 1007.72 1006.55 1006.24 1005.16 1004.41 1004.34 1004.50 1004.63 1005.05 1004.82 1005.86
1019.95 1019.60 1019.33 1018.96 1018.79 1018.48 1018.07 1017.93 1017.61 1017.44 1017.15 1016.68 1016.40 1015.96 1015.54 1015.41 1014.70 1012.72 1009.37 1008.66 1008.67 1009.20 1009.77 1009.64 1010.14 1010.30 1010.91 1010.56 1010.71 1010.91 1011.12 1010.17 1008.68 1008.14 1007.54 1006.26 1005.82 1005.25 1004.70 1004.47 1004.72 1004.85 1005.05 1005.04 1006.03
1019.66 1019.43 1019.17 1018.82 1018.34 1018.18 1018.05 1017.69 1017.45 1017.13 1016.82 1016.54 1016.22 1015.88 1015.43 1015.13 1013.87 1009.76 1007.47 1007.65 1007.89 1008.83 1009.16 1009.44 1009.81 1010.24 1010.63 1010.47 1010.04 1009.66 1009.64 1007.80 1007.95 1007.30 1006.73 1006.00 1005.27 1004.82 1004.47 1004.41 1004.45 1004.73 1005.23 1005.81 1006.54
1019.54 1019.04 1018.67 1018.36 1018.07 1017.91 1017.57 1017.48 1017.14 1016.87 1016.63 1016.55 1016.26 1015.93 1015.16 1015.01 1012.49 1008.15 1007.60 1007.51 1007.38 1008.44 1009.05 1009.26 1009.79 1010.42 1010.31 1010.08 1008.44 1009.44 1008.50 1008.06 1007.20 1006.40 1006.19 1005.73 1004.92 1004.57 1004.19 1003.83 1003.71 1004.05 1004.64 1005.55 1006.21
1019.81 1019.30 1018.75 1018.29 1017.84 1017.46 1017.20 1016.99 1016.77 1016.44 1016.49 1016.48 1015.94 1015.39 1014.90 1014.10 1010.69 1007.53 1007.73 1007.58 1007.83 1008.20 1008.35 1008.85 1009.43 1009.76 1009.64 1008.87 1008.93 1008.58 1007.94 1007.08 1006.44 1006.04 1005.60 1005.09 1004.69 1004.05 1003.45 1003.24 1003.55 1003.69 1004.43 1004.89 1005.52
1019.71 1019.30 1018.91 1018.46 1018.04 1017.73 1017.38 1017.15 1017.00 1016.73 1016.30 1015.79 1015.34 1015.20 1015.13 1012.84 1008.87 1008.16 1007.80 1008.04 1008.00 1007.96 1008.13 1008.43 1008.08 1007.83 1008.82 1008.75 1008.85 1007.10 1006.58 1006.45 1006.02 1005.45 1005.13 1004.74 1003.98 1003.64 1002.91 1002.69 1003.46 1003.70 1004.10 1004.37 1004.79
1019.23 1018.78 1018.32 1017.86 1017.44 1016.98 1016.62 1016.28 1015.96 1015.68 1015.40 1015.21 1015.00 1014.78 1013.77 1010.17 1008.40 1007.73 1008.02 1007.63 1007.37 1007.44 1007.46 1007.28 1007.61 1008.21 1008.40 1008.91 1008.26 1007.68 1007.02 1006.15 1005.60 1005.26 1004.56 1004.24 1003.65 1003.05 1002.62 1002.61 1003.02 1003.41 1003.43 1003.92 1004.07
1018.82 1018.44 1017.97 1017.36 1016.73 1016.15 1015.56 1014.99 1014.60 1014.40 1014.36 1014.37 1014.34 1014.04 1011.57 1009.09 1008.01 1008.07 1007.34 1007.00 1007.02 1007.09 1007.09 1006.92 1007.23 1008.09 1008.62 1008.50 1008.07 1007.67 1007.16 1006.28 1005.41 1004.99 1003.93 1004.47 1003.10 1002.58 1002.13 1002.59 1002.56 1002.79 1003.05 1003.49 1003.56
1018.47 1017.96 1017.47 1017.06 1016.62 1015.97 1015.21 1014.37 1013.48 1013.30 1013.41 1013.86 1014.07 1013.54 1010.11 1007.54 1007.01 1005.55 1005.91 1006.22 1005.56 1006.42 1006.61 1006.65 1007.37 1007.88 1008.37 1008.73 1008.65 1008.06 1007.30 1006.15 1005.06 1004.53 1003.98 1003.89 1002.92 1002.12 1001.61 1002.23 1001.96 1002.27 1002.43 1002.76 1002.93
1018.25 1017.68 1017.19 1016.74 1016.27 1015.69 1015.06 1014.04 1011.99 1012.23 1012.48 1013.11 1012.93 1012.93 1008.88 1005.45 1004.32 1003.86 1004.22 1005.36 1005.72 1005.64 1006.34 1006.54 1007.06 1007.34 1007.92 1008.17 1007.48 1007.29 1006.76 1005.90 1004.58 1003.55 1003.84 1003.37 1002.97 1002.14 1001.28 1001.31 1001.34 1001.66 1001.96 1002.29 1002.96
1018.05 1017.52 1016.84 1016.32 1015.92 1015.52 1014.99 1014.08 1012.33 1012.34 1012.22 1009.94 1008.65 1006.94 1004.43 1003.75 1003.61 1003.16 1003.47 1004.59 1005.62 1005.60 1005.43 1005.64 1006.54 1005.73 1006.08 1005.74 1006.26 1006.56 1006.28 1005.56 1003.92 1003.02 1003.83 1003.12 1002.59 1001.60 1000.90 1000.97 1001.00 1001.26 1001.80 1001.96 1002.80
1017.63 1017.10 1016.62 1016.07 1015.50 1015.15 1015.26 1014.93 1013.43 1013.12 1010.92 1008.89 1007.77 1007.11 1005.10 1004.50 1004.10 1002.54 1002.67 1003.72 1004.46 1004.35 1005.05 1005.57 1003.57 1004.52 1004.95 1005.67 1005.95 1006.03 1005.95 1004.93 1003.54 1003.10 1003.84 1003.15 1002.32 1000.98 1000.69 1000.86 1000.39 1000.55 1001.34 1002.19 1003.14
1017.31 1016.68 1016.06 1015.66 1015.20 1015.02 1014.66 1013.75 1012.45 1012.69 1011.37 1006.92 1005.52 1004.46 1005.02 1004.77 1003.80 1001.85 1002.66 1002.52 1002.95 1004.01 1003.55 1002.88 1002.51 1003.88 1004.47 1004.71 1005.09 1004.90 1005.04 1004.22 1003.79 1003.34 1003.55 1003.45 1002.70 1001.57 1000.30 1000.16 1000.27 1000.29 1000.72 1001.76 1002.19
1016.97 1016.42 1015.86 1015.28 1015.08 1014.81 1013.69 1012.08 1012.30 1011.95 1010.65 1005.33 1003.08 1001.20 1002.59 1003.83 1001.82 1001.38 1001.18 1001.74 1002.06 1002.49 1003.18 1002.81 1002.91 1002.81 1003.19 1003.29 1003.79 1003.65 1003.42 1004.03 1003.88 1004.05 1003.75 1003.03 1002.96 1002.10 1000.60 1000.05 999.99 1000.13 1000.38 1001.27 1002.22
1016.55 1016.04 1015.59 1015.43 1015.11 1014.67 1012.78 1012.21 1011.70 1011.21 1009.43 1002.81 1001.03 999.59 999.87 999.89 999.02 998.87 999.41 1000.75 1000.52 1000.83 1001.69 1000.97 1001.45 1002.07 1001.73 1001.71 1002.47 1001.83 1003.29 1003.56 1003.75 1003.82 1004.11 1002.84 1003.48 1001.68 1000.70 1000.09 999.85 1000.10 1000.53 1001.69 1002.36
1016.03 1015.52 1015.13 1014.80 1014.79 1013.60 1013.07 1012.44 1011.86 1011.51 1007.29 1002.64 1001.23 1000.93 1000.70 1000.06 998.65 997.87 998.42 999.23 1000.11 1000.77 1000.28 1000.49 1000.36 1000.54 1000.48 1001.27 1001.59 1001.88 1002.94 1003.37 1003.69 1004.04 1003.95 1003.09 1003.08 1001.08 1000.66 999.81 999.74 999.92 1000.69 1001.64 1002.91
1015.43 1014.93 1014.72 1014.35 1013.78 1013.25 1013.22 1012.57 1011.85 1009.61 1006.04 1003.61 1002.65 1002.02 1000.68 999.96 1000.17 999.33 999.12 999.24 998.95 1000.17 999.53 1000.22 999.76 999.83 999.80 1000.47 1000.90 1001.48 1002.83 1004.06 1004.33 1003.90 1003.31 1002.64 1002.45 1000.47 999.59 999.15 999.34 1000.01 1001.05 1002.05 1002.99
1014.81 1014.27 1013.68 1013.46 1013.26 1013.40 1013.73 1013.34 1011.41 1008.36 1007.16 1004.86 1004.53 1003.27 1002.02 1001.73 1000.92 999.84 999.42 998.54 998.69 998.21 998.72 999.04 998.87 998.20 998.11 998.42 999.61 1000.38 1001.62 1002.44 1003.42 1003.34 1003.14 1002.41 1001.21 999.43 998.49 998.26 998.57 999.57 1000.60 1001.97 1003.21
1014.16 1013.72 1013.49 1012.53 1012.73 1013.52 1013.79 1012.69 1010.52 1009.07 1008.07 1006.77 1005.85 1004.75 1003.80 1003.77 1003.48 1000.98 998.89 998.13 996.80 997.06 997.74 998.23 997.59 996.61 996.74 997.84 998.69 999.19 999.99 1001.09 1002.45 1002.68 1002.68 1001.76 1000.34 999.16 998.68 998.84 999.21 1000.33 1001.17 1002.21 1002.98
1014.49 1014.02 1013.13 1011.91 1012.40 1013.30 1013.66 1012.23 1010.85 1009.76 1008.99 1007.81 1007.14 1006.76 1005.99 1005.10 1004.41 1002.60 1000.46 998.60 998.13 997.66 997.36 997.47 997.52 996.56 996.25 997.23 997.37 997.19 998.59 1000.68 1001.76 1002.35 1002.23 1001.59 1000.45 999.71 999.53 999.60 999.87 1000.52 1001.37 1002.26 1003.04
1014.62 1014.10 1012.50 1011.81 1012.49 1013.22 1013.09 1012.28 1011.03 1010.01 1009.23 1008.88 1008.12 1007.86 1007.26 1006.01 1005.36 1004.60 1002.50 1000.42 999.14 998.40 998.46 998.26 997.85 997.01 996.88 995.43 995.29 997.19 998.06 999.25 1000.12 1001.00 1001.08 1001.21 1000.00 998.86 998.80 999.14 999.76 1000.14 1000.82 1001.72 1002.52
1014.93 1014.32 1012.51 1012.15 1013.08 1013.26 1013.10 1012.19 1011.21 1009.97 1009.46 1009.00 1008.15 1007.81 1007.41 1006.85 1005.70 1005.16 1003.23 1002.24 1002.04 1000.78 999.04 997.35 998.57 997.94 995.58 994.98 995.01 995.99 996.55 997.73 998.73 999.72 999.85 999.97 998.98 997.64 997.58 998.12 998.88 999.82 1000.60 1001.32 1001.96
1015.29 1014.50 1012.73 1012.60 1013.29 1013.43 1013.11 1012.13 1011.12 1010.03 1009.35 1008.58 1008.13 1007.85 1007.42 1006.96 1006.44 1005.16 1004.01 1002.27 1002.39 1002.15 1001.14 999.64 998.20 998.27 996.22 995.41 994.91 994.71 995.04 995.87 997.23 998.19 998.60 998.97 998.01 997.04 997.84 997.83 998.45 999.34 1000.25 1001.05 1001.88
1015.77 1015.05 1013.90 1013.45 1013.50 1013.50 1012.83 1011.79 1010.92 1009.81 1008.95 1008.29 1007.85 1007.65 1007.14 1006.47 1005.64 1004.91 1004.44 1003.43 1003.15 1003.00 1002.41 1001.15 998.91 996.74 994.90 993.23 993.23 993.57 994.13 995.04 995.98 996.90 997.24 996.91 997.26 997.24 997.67 998.34 998.73 999.24 999.78 1000.47 1001.35
1015.97 1015.35 1014.48 1014.07 1013.63 1013.34 1012.77 1011.77 1010.98 1010.06 1008.86 1008.22 1007.47 1007.25 1006.85 1006.22 1005.45 1004.47 1004.39 1003.91 1003.81 1002.85 1002.62 1002.22 999.14 996.67 995.06 993.94 993.18 992.77 992.91 993.64 994.16 994.74 995.41 996.02 996.22 996.42 996.81 997.48 997.82 998.26 999.42 1000.18 1001.00
1016.27 1015.79 1015.06 1014.57 1013.76 1013.23 1012.57 1011.84 1011.10 1010.15 1009.30 1008.25 1007.75 1007.22 1006.75 1006.37 1005.67 1004.72 1004.25 1004.50 1004.77 1003.07 1003.46 1002.62 1000.33 997.10 995.79 994.24 993.34 992.98 992.56 992.19 992.76 993.56 994.02 994.57 995.38 994.89 995.51 996.12 997.22 997.75 998.45 999.34 999.96
1015.84 1015.51 1015.51 1014.50 1013.86 1013.48 1012.61 1011.85 1011.18 1010.53 1009.05 1008.07 1007.67 1007.34 1006.77 1005.66 1004.61 1004.26 1003.68 1004.27 1004.34 1004.14 1004.02 1003.62 1001.61 999.07 995.70 994.03 993.50 992.87 991.57 991.50 991.65 991.90 992.89 993.90 993.94 994.29 995.24 995.81 996.15 996.99 997.51 998.08 998.77
Thickness
5652 5656 5659 5662 5663 5664 5667 5672 5679 5685 5690 5696 5698 5707 5713 5721 5732 5737 5750 5775 5773 5784 5782 5779 5771 5771 5766 5760 5761 5754 5715 5714 5729 5738 5756 5778 5766 5786 5796 5787 5787 5788 5779 5791 5789
5644 5648 5649 5651 5651 5654 5659 5661 5667 5671 5677 5683 5688 5695 5702 5706 5715 5730 5773 5774 5777 5776 5774 5767 5757 5757 5746 5755 5750 5733 5708 5732 5759 5760 5754 5770 5768 5773 5776 5774 5773 5775 5783 5787 5781
5638 5639 5640 5641 5646 5648 5649 5653 5657 5662 5668 5673 5679 5685 5691 5697 5708 5745 5773 5778 5775 5771 5770 5765 5760 5748 5735 5743 5746 5740 5719 5761 5758 5764 5768 5766 5773 5780 5770 5761 5772 5766 5771 5771 5766
5631 5634 5636 5637 5639 5640 5644 5646 5649 5653 5657 5660 5665 5672 5681 5686 5686 5750 5764 5769 5773 5764 5758 5752 5744 5728 5725 5723 5758 5716 5742 5747 5756 5766 5762 5758 5773 5770 5770 5771 5785 5781 5778 5770 5764
5619 5622 5624 5627 5631 5632 5637 5640 5643 5646 5646 5648 5655 5663 5669 5674 5703 5752 5754 5757 5758 5755 5750 5742 5728 5725 5715 5735 5735 5723 5738 5751 5757 5758 5759 5765 5759 5765 5771 5784 5783 5783 5775 5771 5765
5609 5611 5612 5614 5617 5619 5620 5623 5627 5631 5635 5641 5647 5651 5651 5659 5728 5734 5739 5739 5743 5744 5741 5738 5738 5744 5715 5721 5718 5745 5745 5742 5750 5752 5754 5749 5759 5764 5777 5788 5776 5773 5770 5770 5766
5603 5605 5607 5610 5612 5616 5618 5620 5624 5629 5633 5634 5637 5641 5647 5682 5716 5724 5721 5729 5738 5740 5735 5745 5740 5724 5720 5707 5725 5725 5712 5727 5737 5742 5745 5757 5742 5753 5777 5780 5772 5768 5771 5768 5768
5592 5593 5597 5601 5606 5611 5617 5623 5626 5630 5631 5631 5635 5639 5657 5688 5701 5703 5718 5724 5730 5733 5735 5742 5734 5712 5700 5709 5709 5703 5702 5691 5726 5735 5751 5738 5725 5762 5776 5768 5770 5770 5770 5766 5766
5580 5581 5582 5585 5590 5597 5604 5613 5622 5626 5628 5626 5627 5630 5653 5692 5696 5720 5717 5711 5730 5723 5727 5733 5713 5698 5697 5681 5675 5685 5675 5691 5711 5735 5738 5733 5732 5760 5774 5765 5766 5768 5768 5769 5769
5562 5564 5565 5568 5572 5578 5587 5597 5617 5619 5620 5619 5624 5623 5661 5695 5709 5716 5717 5709 5707 5715 5706 5705 5693 5684 5680 5672 5668 5681 5680 5697 5707 5734 5730 5727 5728 5750 5770 5769 5767 5770 5768 5767 5761
5540 5541 5545 5548 5552 5558 5567 5576 5597 5601 5604 5631 5647 5663 5690 5698 5708 5713 5714 5701 5696 5694 5687 5698 5672 5675 5693 5705 5703 5698 5692 5692 5719 5737 5723 5725 5731 5748 5761 5760 5763 5764 5764 5764 5760
5513 5516 5519 5524 5530 5536 5539 5543 5562 5575 5594 5625 5639 5648 5672 5680 5675 5700 5712 5693 5686 5682 5691 5681 5686 5705 5714 5703 5695 5692 5687 5697 5721 5733 5718 5722 5729 5751 5760 5757 5764 5767 5763 5758 5750
5482 5487 5493 5499 5505 5511 5517 5530 5549 5558 5571 5625 5642 5653 5659 5662 5662 5688 5695 5695 5688 5676 5688 5690 5708 5713 5701 5698 5689 5693 5689 5703 5707 5722 5720 5716 5712 5731 5756 5761 5766 5772 5768 5758 5757
5457 5460 5466 5474 5481 5485 5499 5521 5527 5545 5544 5618 5643 5661 5658 5656 5663 5693 5697 5692 5686 5678 5684 5684 5699 5702 5696 5695 5700 5686 5718 5711 5710 5700 5682 5720 5679 5711 5740 5752 5761 5765 5764 5758 5758
5446 5448 5451 5452 5456 5461 5486 5496 5512 5527 5534 5631 5633 5659 5659 5664 5690 5693 5705 5687 5686 5690 5683 5682 5693 5690 5695 5704 5712 5712 5713 5709 5709 5703 5694 5709 5681 5705 5737 5744 5753 5760 5760 5753 5752
5440 5442 5445 5447 5448 5458 5467 5476 5488 5501 5531 5594 5609 5616 5626 5644 5671 5689 5685 5690 5692 5680 5689 5685 5706 5704 5703 5708 5712 5725 5703 5701 5701 5692 5663 5702 5690 5717 5721 5740 5753 5763 5759 5749 5740
5435 5436 5436 5439 5443 5451 5454 5461 5473 5484 5558 5571 5574 5593 5613 5624 5629 5648 5658 5659 5663 5652 5662 5674 5683 5699 5706 5690 5703 5703 5681 5650 5645 5654 5659 5705 5694 5723 5738 5750 5755 5754 5749 5741 5737
5432 5433 5434 5435 5437 5437 5438 5443 5456 5512 5523 5554 5556 5568 5582 5592 5606 5627 5638 5654 5670 5682 5672 5666 5664 5697 5713 5702 5694 5694 5688 5661 5639 5646 5670 5703 5689 5722 5753 5762 5763 5760 5752 5741 5732
5431 5430 5429 5436 5433 5428 5429 5438 5463 5485 5494 5507 5520 5534 5551 5563 5573 5604 5640 5655 5684 5688 5670 5666 5674 5715 5718 5714 5708 5695 5681 5705 5681 5688 5672 5690 5716 5738 5747 5748 5752 5745 5743 5736 5730
5421 5417 5421 5432 5428 5421 5415 5436 5447 5463 5473 5485 5493 5507 5517 5539 5551 5579 5613 5657 5660 5679 5688 5681 5662 5704 5712 5710 5714 5714 5715 5677 5661 5653 5651 5680 5702 5702 5726 5731 5740 5738 5735 5732 5727
5411 5406 5421 5425 5421 5413 5403 5412 5439 5457 5463 5465 5475 5483 5501 5520 5539 5549 5583 5620 5639 5656 5667 5670 5663 5675 5695 5701 5704 5690 5690 5692 5693 5678 5661 5662 5691 5725 5732 5736 5737 5741 5740 5736 5728
5401 5397 5417 5421 5413 5410 5408 5424 5433 5449 5454 5459 5473 5482 5490 5505 5524 5539 5569 5579 5593 5615 5633 5675 5649 5654 5691 5717 5727 5714 5702 5706 5688 5677 5687 5683 5694 5745 5743 5745 5748 5743 5743 5737 5732
5398 5397 5414 5418 5410 5409 5412 5423 5437 5446 5452 5462 5469 5473 5483 5497 5507 5532 5548 5577 5586 5595 5610 5631 5648 5636 5661 5686 5705 5704 5717 5718 5702 5691 5685 5688 5699 5747 5746 5748 5749 5744 5740 5736 5727
5394 5393 5404 5407 5406 5403 5416 5427 5431 5450 5456 5461 5465 5469 5478 5489 5510 5521 5534 5558 5572 5582 5596 5609 5636 5660 5669 5701 5715 5701 5713 5715 5711 5683 5689 5716 5714 5731 5731 5733 5738 5741 5741 5738 5729
5388 5390 5403 5398 5403 5406 5414 5425 5429 5434 5450 5454 5460 5467 5473 5480 5496 5519 5532 5548 5559 5578 5584 5592 5628 5671 5690 5704 5711 5718 5721 5719 5716 5719 5710 5716 5720 5728 5734 5736 5742 5745 5740 5737 5728
5375 5389 5395 5392 5402 5409 5412 5422 5426 5426 5437 5441 5448 5460 5470 5467 5482 5506 5524 5533 5535 5566 5570 5586 5610 5659 5671 5697 5704 5700 5713 5729 5730 5724 5722 5726 5720 5747 5751 5753 5744 5746 5745 5741 5736
5387 5385 5382 5396 5397 5394 5405 5422 5416 5416 5434 5445 5453 5446 5446 5474 5495 5502 5519 5525 5538 5547 5556 5569 5595 5617 5662 5691 5693 5673 5705 5716 5732 5742 5728 5712 5736 5746 5743 5743 5748 5746 5749 5747 5744